• In Czech Republic
  • List of Countries
  • For 7 days
  • Water Temperature
  • Satellite Maps
  • Weather Map
  • Weather Widgets
  • user-avatar
    Login

    Hourly Weather Kula

    Today, 22 June, Friday

    Time Temperature Precipitation Wind Pressure Humidity
    00:00 +21°C° 0.1 mm 1 mps 703 mmHg 77%
    01:00 +21°C° 0.1 mm 1 mps 703 mmHg 80%
    02:00 +20°C° 0.1 mm 1 mps 703 mmHg 83%
    03:00 +20°C° 0.2 mm 1 mps 703 mmHg 84%
    04:00 +20°C° 0.2 mm 1 mps 703 mmHg 86%
    05:00 +19°C° 0.2 mm 1 mps 703 mmHg 88%
    06:00 +20°C° 0.2 mm 1 mps 703 mmHg 82%
    07:00 +21°C° 0.2 mm 1 mps 703 mmHg 75%
    08:00 +23°C° 0.2 mm 1 mps 703 mmHg 69%
    09:00 +24°C° 0.2 mm 2 mps 703 mmHg 63%
    10:00 +25°C° 0.2 mm 2 mps 703 mmHg 57%
    11:00 +26°C° 0.2 mm 3 mps 703 mmHg 51%
    12:00 +27°C° 0.4 mm 4 mps 703 mmHg 50%
    13:00 +27°C° 0.4 mm 5 mps 703 mmHg 49%
    14:00 +27°C° 0.4 mm 6 mps 703 mmHg 47%
    15:00 +27°C° 0.5 mm 5 mps 703 mmHg 49%
    16:00 +26°C° 0.5 mm 5 mps 703 mmHg 52%
    17:00 +26°C° 0.5 mm 5 mps 702 mmHg 54%
    18:00 +25°C° 0.1 mm 4 mps 702 mmHg 58%
    19:00 +24°C° 0.1 mm 3 mps 702 mmHg 62%
    20:00 +21°C° 0.1 mm 2 mps 702 mmHg 66%
    21:00 +21°C° 0 mm 2 mps 703 mmHg 68%
    22:00 +21°C° 0 mm 1 mps 703 mmHg 71%
    23:00 +21°C° 0 mm 1 mps 703 mmHg 73%

    Tomorrow, 23 June, Saturday

    Time Temperature Precipitation Wind Pressure Humidity
    00:00 +20°C° 0 mm 1 mps 702 mmHg 75%
    01:00 +20°C° 0 mm 1 mps 702 mmHg 77%
    02:00 +18°C° 0 mm 0 mps 702 mmHg 79%
    03:00 +17°C° 0 mm 0 mps 702 mmHg 80%
    04:00 +17°C° 0 mm 0 mps 702 mmHg 82%
    05:00 +17°C° 0 mm 0 mps 702 mmHg 83%
    06:00 +18°C° 0 mm 0 mps 702 mmHg 76%
    07:00 +20°C° 0 mm 0 mps 702 mmHg 70%
    08:00 +21°C° 0 mm 0 mps 702 mmHg 63%
    09:00 +24°C° 0.2 mm 1 mps 703 mmHg 58%
    10:00 +26°C° 0.2 mm 1 mps 703 mmHg 53%
    11:00 +27°C° 0.2 mm 1 mps 703 mmHg 48%
    12:00 +27°C° 0.4 mm 2 mps 702 mmHg 46%
    13:00 +28°C° 0.4 mm 2 mps 702 mmHg 43%
    14:00 +29°C° 0.4 mm 3 mps 702 mmHg 41%
    15:00 +28°C° 0.6 mm 3 mps 702 mmHg 42%
    16:00 +28°C° 0.6 mm 3 mps 702 mmHg 44%
    17:00 +28°C° 0.6 mm 3 mps 702 mmHg 45%
    18:00 +27°C° 0.3 mm 3 mps 702 mmHg 49%
    19:00 +25°C° 0.3 mm 3 mps 702 mmHg 54%
    20:00 +24°C° 0.3 mm 3 mps 702 mmHg 58%
    21:00 +23°C° 0 mm 2 mps 702 mmHg 62%
    22:00 +23°C° 0 mm 2 mps 702 mmHg 67%
    23:00 +21°C° 0 mm 2 mps 702 mmHg 71%

    Day after tomorrow, 24 June, Sunday

    Time Temperature Precipitation Wind Pressure Humidity
    00:00 +20°C° 0 mm 2 mps 702 mmHg 74%
    01:00 +20°C° 0 mm 2 mps 702 mmHg 76%
    02:00 +19°C° 0 mm 2 mps 702 mmHg 79%
    03:00 +19°C° 0 mm 2 mps 702 mmHg 81%
    04:00 +18°C° 0 mm 2 mps 702 mmHg 83%
    05:00 +18°C° 0 mm 2 mps 702 mmHg 84%
    06:00 +19°C° 0 mm 2 mps 702 mmHg 77%
    07:00 +21°C° 0 mm 2 mps 702 mmHg 70%
    08:00 +23°C° 0 mm 2 mps 702 mmHg 63%
    09:00 +24°C° 0 mm 2 mps 703 mmHg 57%
    10:00 +26°C° 0 mm 2 mps 703 mmHg 51%
    11:00 +27°C° 0 mm 1 mps 703 mmHg 45%
    12:00 +28°C° 0.1 mm 2 mps 703 mmHg 43%
    13:00 +29°C° 0.1 mm 2 mps 702 mmHg 40%
    14:00 +30°C° 0.1 mm 2 mps 702 mmHg 37%
    15:00 +30°C° 0.1 mm 3 mps 702 mmHg 38%
    16:00 +29°C° 0.1 mm 3 mps 702 mmHg 39%
    17:00 +29°C° 0.1 mm 4 mps 702 mmHg 41%
    18:00 +28°C° 0.1 mm 3 mps 702 mmHg 47%
    19:00 +26°C° 0.1 mm 3 mps 702 mmHg 53%
    20:00 +25°C° 0.1 mm 3 mps 702 mmHg 60%
    21:00 +24°C° 0 mm 3 mps 702 mmHg 64%
    22:00 +23°C° 0 mm 2 mps 702 mmHg 68%
    23:00 +21°C° 0 mm 2 mps 702 mmHg 72%

    25 June, Monday

    Time Temperature Precipitation Wind Pressure Humidity
    00:00 +21°C° 0 mm 2 mps 702 mmHg 74%
    01:00 +20°C° 0 mm 2 mps 702 mmHg 76%
    02:00 +20°C° 0 mm 2 mps 702 mmHg 78%
    03:00 +19°C° 0 mm 2 mps 701 mmHg 79%
    04:00 +19°C° 0 mm 2 mps 701 mmHg 81%
    05:00 +20°C° 0 mm 1 mps 701 mmHg 82%
    06:00 +21°C° 0 mm 1 mps 701 mmHg 75%
    07:00 +23°C° 0 mm 1 mps 701 mmHg 68%
    08:00 +24°C° 0 mm 2 mps 702 mmHg 61%
    09:00 +26°C° 0.1 mm 1 mps 702 mmHg 55%
    10:00 +28°C° 0.1 mm 1 mps 702 mmHg 49%
    11:00 +29°C° 0.1 mm 1 mps 702 mmHg 43%
    12:00 +30°C° 0 mm 1 mps 702 mmHg 40%
    13:00 +31°C° 0 mm 1 mps 702 mmHg 38%
    14:00 +32°C° 0 mm 1 mps 702 mmHg 35%
    15:00 +31°C° 0 mm 2 mps 701 mmHg 36%
    16:00 +31°C° 0 mm 2 mps 701 mmHg 37%
    17:00 +31°C° 0 mm 2 mps 701 mmHg 38%
    18:00 +29°C° 0 mm 2 mps 701 mmHg 43%
    19:00 +28°C° 0 mm 2 mps 701 mmHg 48%
    20:00 +27°C° 0 mm 2 mps 701 mmHg 53%
    21:00 +26°C° 0 mm 2 mps 701 mmHg 56%
    22:00 +25°C° 0 mm 2 mps 701 mmHg 60%
    23:00 +24°C° 0 mm 2 mps 701 mmHg 63%

    26 June, Tuesday

    Time Temperature Precipitation Wind Pressure Humidity
    00:00 +24°C° 0 mm 1 mps 701 mmHg 66%
    01:00 +23°C° 0 mm 1 mps 701 mmHg 68%
    02:00 +22°C° 0 mm 1 mps 701 mmHg 71%
    03:00 +22°C° 0 mm 1 mps 700 mmHg 72%
    04:00 +22°C° 0 mm 1 mps 700 mmHg 73%
    05:00 +22°C° 0 mm 1 mps 700 mmHg 75%
    06:00 +23°C° 0 mm 1 mps 700 mmHg 69%
    07:00 +24°C° 0 mm 1 mps 700 mmHg 64%
    08:00 +26°C° 0 mm 1 mps 700 mmHg 58%
    09:00 +27°C° 0.2 mm 2 mps 700 mmHg 53%
    10:00 +28°C° 0.2 mm 3 mps 700 mmHg 48%
    11:00 +29°C° 0.2 mm 3 mps 700 mmHg 43%
    12:00 +30°C° 0.2 mm 4 mps 700 mmHg 40%
    13:00 +30°C° 0.2 mm 5 mps 700 mmHg 37%
    14:00 +30°C° 0.2 mm 5 mps 700 mmHg 34%
    15:00 +30°C° 0 mm 6 mps 700 mmHg 35%
    16:00 +29°C° 0 mm 6 mps 700 mmHg 35%
    17:00 +29°C° 0 mm 6 mps 700 mmHg 35%
    18:00 +27°C° 0 mm 5 mps 701 mmHg 42%
    19:00 +26°C° 0 mm 4 mps 701 mmHg 49%
    20:00 +24°C° 0 mm 3 mps 701 mmHg 55%
    21:00 +22°C° 0 mm 3 mps 701 mmHg 60%
    22:00 +21°C° 0 mm 2 mps 701 mmHg 64%
    23:00 +21°C° 0 mm 1 mps 701 mmHg 68%

    27 June, Wednesday

    Time Temperature Precipitation Wind Pressure Humidity
    00:00 +21°C° 0 mm 1 mps 701 mmHg 71%
    01:00 +20°C° 0 mm 1 mps 700 mmHg 73%
    02:00 +20°C° 0 mm 1 mps 700 mmHg 76%
    03:00 +20°C° 0 mm 1 mps 700 mmHg 76%
    04:00 +19°C° 0 mm 1 mps 700 mmHg 77%
    05:00 +19°C° 0 mm 1 mps 700 mmHg 78%
    06:00 +21°C° 0 mm 1 mps 700 mmHg 70%
    07:00 +22°C° 0 mm 1 mps 701 mmHg 62%
    08:00 +24°C° 0 mm 1 mps 701 mmHg 55%
    09:00 +25°C° 0 mm 2 mps 701 mmHg 49%
    10:00 +26°C° 0 mm 2 mps 701 mmHg 44%
    11:00 +28°C° 0 mm 3 mps 701 mmHg 39%
    12:00 +28°C° 0 mm 3 mps 701 mmHg 36%
    13:00 +29°C° 0 mm 4 mps 701 mmHg 34%
    14:00 +30°C° 0 mm 4 mps 701 mmHg 31%
    15:00 +30°C° 0 mm 4 mps 700 mmHg 33%
    16:00 +29°C° 0 mm 4 mps 700 mmHg 34%
    17:00 +29°C° 0 mm 4 mps 700 mmHg 35%
    18:00 +27°C° 0 mm 4 mps 700 mmHg 41%
    19:00 +26°C° 0 mm 3 mps 700 mmHg 47%
    20:00 +24°C° 0 mm 3 mps 700 mmHg 53%
    21:00 +22°C° 0 mm 3 mps 701 mmHg 58%
    22:00 +21°C° 0 mm 2 mps 701 mmHg 63%
    23:00 +20°C° 0 mm 2 mps 701 mmHg 69%
    Show more